Arikun — 3EKY2 — position and weather

sailwx.info

Track history (hours):
 
Tides and Currents Weather Stations Pressure Air Temp Water Temp Dewpoint Dewpoint Depression Visibility Wind Speed Wind Dir Waves Ship Positions

Arikun

Last reported at 2016-May-28 04:08 UTC. Time now 2016-May-31 18:03 UTC.
Position N 22°05' E 113°49'.

Length 112 m; draft 8 m.

Type: Cargo ship. MMSI: 372870000.

Date/timePositionNaut miles runAvg speedWind from/ knotsBaromVisibWave heightAir tempDewpointWater temp
2016-May-28 04:08N 22°05' E 113°49'6 9.6
2016-May-28 03:33N 22°11' E 113°47'3210.4
2016-May-28 00:31N 22°42' E 113°41'8 0.5
2016-May-27 08:07N 22°48' E 113°36'18 6.5
2016-May-27 05:19N 23°05' E 113°27'0 0.0
2016-May-27 04:25N 23°05' E 113°27'0 0.0
2016-May-27 03:31N 23°05' E 113°27'0 0.0
2016-May-27 02:25N 23°05' E 113°27'0 0.0
2016-May-27 01:31N 23°05' E 113°27'0 0.0
2016-May-26 20:25N 23°05' E 113°27'0 0.0
2016-May-26 16:13N 23°05' E 113°27'0 0.0
2016-May-26 14:13N 23°05' E 113°27'0 0.0
2016-May-26 13:13N 23°05' E 113°27'0 0.0
2016-May-26 12:25N 23°05' E 113°27'0 0.0
2016-May-26 11:07N 23°05' E 113°27'0 0.0
2016-May-26 09:25N 23°05' E 113°27'0 0.0
2016-May-26 07:31N 23°05' E 113°27'0 0.0
2016-May-26 06:31N 23°05' E 113°27'0 0.0
2016-May-26 03:31N 23°05' E 113°27'0 0.0
2016-May-26 02:31N 23°05' E 113°27'0 0.0
2016-May-26 01:31N 23°05' E 113°27'0 0.0
2016-May-26 00:25N 23°05' E 113°27'0 0.0
2016-May-25 23:25N 23°05' E 113°27'0 0.0
2016-May-25 22:31N 23°05' E 113°27'0 0.0
2016-May-25 21:25N 23°05' E 113°27'0 0.0
2016-May-25 20:19N 23°05' E 113°27'0 0.0
2016-May-25 19:31N 23°05' E 113°27'0 0.0
2016-May-25 18:31N 23°05' E 113°27'0 0.0
2016-May-25 17:31N 23°05' E 113°27'0 0.0
2016-May-25 16:19N 23°05' E 113°27'0 0.0
2016-May-25 15:25N 23°05' E 113°27'0 0.0
2016-May-25 13:19N 23°05' E 113°27'0 0.0
2016-May-25 12:19N 23°05' E 113°27'0 0.0
2016-May-25 11:19N 23°05' E 113°27'0 0.0
2016-May-25 10:31N 23°05' E 113°27'0 0.0
2016-May-25 09:25N 23°05' E 113°27'0 0.0
2016-May-25 08:25N 23°05' E 113°27'0 0.0
2016-May-25 07:25N 23°05' E 113°27'0 0.0
2016-May-25 06:25N 23°05' E 113°27'0 0.0
2016-May-25 04:31N 23°05' E 113°27'0 0.0
2016-May-25 01:31N 23°05' E 113°27'0 0.0
2016-May-25 00:25N 23°05' E 113°27'0 0.0
2016-May-24 23:31N 23°05' E 113°27'0 0.0
2016-May-24 22:13N 23°05' E 113°27'0 0.0
2016-May-24 21:25N 23°05' E 113°27'0 0.0
2016-May-24 19:31N 23°05' E 113°27'0 0.0
2016-May-24 18:25N 23°05' E 113°27'0 0.0
2016-May-24 17:19N 23°05' E 113°27'0 0.0
2016-May-24 16:31N 23°05' E 113°27'0 0.0
2016-May-24 10:22N 23°05' E 113°27'0 0.0
2016-May-24 09:28N 23°05' E 113°27'0 0.0
2016-May-24 08:28N 23°05' E 113°27'0 0.0
2016-May-24 07:28N 23°05' E 113°27'0 0.0
2016-May-24 06:28N 23°05' E 113°27'0 0.0
2016-May-24 03:28N 23°05' E 113°27'0 0.0
2016-May-24 02:28N 23°05' E 113°27'0 0.0
2016-May-24 01:28N 23°05' E 113°27'0 0.0
2016-May-24 00:28N 23°05' E 113°27'0 0.0
2016-May-23 19:22N 23°05' E 113°27'0 0.0
2016-May-23 17:28N 23°05' E 113°27'0 0.0
2016-May-23 16:28N 23°05' E 113°27'0 0.0
2016-May-23 15:16N 23°05' E 113°27'0 0.0
2016-May-23 14:10N 23°05' E 113°27'0 0.0
2016-May-23 13:10N 23°05' E 113°27'0 0.0
2016-May-23 12:22N 23°05' E 113°27'0 0.0
2016-May-23 11:28N 23°05' E 113°27'0 0.0
2016-May-23 10:22N 23°05' E 113°27'0 0.0
2016-May-23 09:28N 23°05' E 113°27'0 0.0
2016-May-23 07:28N 23°05' E 113°27'0 0.0
2016-May-23 06:28N 23°05' E 113°27'0 0.0
2016-May-23 04:28N 23°05' E 113°27'2 1.8
2016-May-23 03:33N 23°04' E 113°29'10 9.2
2016-May-23 02:30N 22°55' E 113°33'  
Track history (hours):
 
Tides and Currents Weather Stations Pressure Air Temp Water Temp Dewpoint Dewpoint Depression Visibility Wind Speed Wind Dir Waves Ship Positions

Arikun

Last reported at 2016-May-28 04:08 UTC. Time now 2016-May-31 18:03 UTC.
Position N 22°05' E 113°49'.

Length 112 m; draft 8 m.

Type: Cargo ship. MMSI: 372870000.

Date/timePositionNaut miles runAvg speedWind from/ knotsBaromVisibWave heightAir tempDewpointWater temp
2016-May-28 04:08N 22°05' E 113°49'6 9.6
2016-May-28 03:33N 22°11' E 113°47'3210.4
2016-May-28 00:31N 22°42' E 113°41'8 0.5
2016-May-27 08:07N 22°48' E 113°36'18 6.5
2016-May-27 05:19N 23°05' E 113°27'0 0.0
2016-May-27 04:25N 23°05' E 113°27'0 0.0
2016-May-27 03:31N 23°05' E 113°27'0 0.0
2016-May-27 02:25N 23°05' E 113°27'0 0.0
2016-May-27 01:31N 23°05' E 113°27'0 0.0
2016-May-26 20:25N 23°05' E 113°27'0 0.0
2016-May-26 16:13N 23°05' E 113°27'0 0.0
2016-May-26 14:13N 23°05' E 113°27'0 0.0
2016-May-26 13:13N 23°05' E 113°27'0 0.0
2016-May-26 12:25N 23°05' E 113°27'0 0.0
2016-May-26 11:07N 23°05' E 113°27'0 0.0
2016-May-26 09:25N 23°05' E 113°27'0 0.0
2016-May-26 07:31N 23°05' E 113°27'0 0.0
2016-May-26 06:31N 23°05' E 113°27'0 0.0
2016-May-26 03:31N 23°05' E 113°27'0 0.0
2016-May-26 02:31N 23°05' E 113°27'0 0.0
2016-May-26 01:31N 23°05' E 113°27'0 0.0
2016-May-26 00:25N 23°05' E 113°27'0 0.0
2016-May-25 23:25N 23°05' E 113°27'0 0.0
2016-May-25 22:31N 23°05' E 113°27'0 0.0
2016-May-25 21:25N 23°05' E 113°27'0 0.0
2016-May-25 20:19N 23°05' E 113°27'0 0.0
2016-May-25 19:31N 23°05' E 113°27'0 0.0
2016-May-25 18:31N 23°05' E 113°27'0 0.0
2016-May-25 17:31N 23°05' E 113°27'0 0.0
2016-May-25 16:19N 23°05' E 113°27'0 0.0
2016-May-25 15:25N 23°05' E 113°27'0 0.0
2016-May-25 13:19N 23°05' E 113°27'0 0.0
2016-May-25 12:19N 23°05' E 113°27'0 0.0
2016-May-25 11:19N 23°05' E 113°27'0 0.0
2016-May-25 10:31N 23°05' E 113°27'0 0.0
2016-May-25 09:25N 23°05' E 113°27'0 0.0
2016-May-25 08:25N 23°05' E 113°27'0 0.0
2016-May-25 07:25N 23°05' E 113°27'0 0.0
2016-May-25 06:25N 23°05' E 113°27'0 0.0
2016-May-25 04:31N 23°05' E 113°27'0 0.0
2016-May-25 01:31N 23°05' E 113°27'0 0.0
2016-May-25 00:25N 23°05' E 113°27'0 0.0
2016-May-24 23:31N 23°05' E 113°27'0 0.0
2016-May-24 22:13N 23°05' E 113°27'0 0.0
2016-May-24 21:25N 23°05' E 113°27'0 0.0
2016-May-24 19:31N 23°05' E 113°27'0 0.0
2016-May-24 18:25N 23°05' E 113°27'0 0.0
2016-May-24 17:19N 23°05' E 113°27'0 0.0
2016-May-24 16:31N 23°05' E 113°27'0 0.0
2016-May-24 10:22N 23°05' E 113°27'0 0.0
2016-May-24 09:28N 23°05' E 113°27'0 0.0
2016-May-24 08:28N 23°05' E 113°27'0 0.0
2016-May-24 07:28N 23°05' E 113°27'0 0.0
2016-May-24 06:28N 23°05' E 113°27'0 0.0
2016-May-24 03:28N 23°05' E 113°27'0 0.0
2016-May-24 02:28N 23°05' E 113°27'0 0.0
2016-May-24 01:28N 23°05' E 113°27'0 0.0
2016-May-24 00:28N 23°05' E 113°27'0 0.0
2016-May-23 19:22N 23°05' E 113°27'0 0.0
2016-May-23 17:28N 23°05' E 113°27'0 0.0
2016-May-23 16:28N 23°05' E 113°27'0 0.0
2016-May-23 15:16N 23°05' E 113°27'0 0.0
2016-May-23 14:10N 23°05' E 113°27'0 0.0
2016-May-23 13:10N 23°05' E 113°27'0 0.0
2016-May-23 12:22N 23°05' E 113°27'0 0.0
2016-May-23 11:28N 23°05' E 113°27'0 0.0
2016-May-23 10:22N 23°05' E 113°27'0 0.0
2016-May-23 09:28N 23°05' E 113°27'0 0.0
2016-May-23 07:28N 23°05' E 113°27'0 0.0
2016-May-23 06:28N 23°05' E 113°27'0 0.0
2016-May-23 04:28N 23°05' E 113°27'2 1.8
2016-May-23 03:33N 23°04' E 113°29'10 9.2
2016-May-23 02:30N 22°55' E 113°33'  

Dump ship's entire track history